シューメーカー-レヴィ第1彗星

192P/Shoemaker-Levy 1 (2007)

English version
Home page
Updated on April 6, 2008

---------------------------------------------------------------------

・ プロフィール

符号 192P/2007 T3
検出日 2007年10月12日
検出光度 18.2等
検出者 R. H. McNaught (Siding Spring)

・ 写真集

・ 軌道要素

                    Epoch = 2007 Dec.  6.0 TT
     T = 2007 Dec. 17.3371 TT         Peri. = 312.8443
     e = 0.773589                     Node  =  51.6501  2000.0
     q = 1.460069 AU                  Incl. =  24.5612
       a =  6.448748 AU    n = 0.0601854    P =  16.38 years

・ 星図

・ 光度変化

        m1 = 9.0 + 5 logΔ + 25 log r(t - 50)

---------------------------------------------------------------------

軌道要素は、IAUC 8879に掲載されたものです。
星図はステラナビゲータ Ver.8 (アストロアーツ) で作成したものです。
光度グラフはComet for Windowsで作成したものです。

---------------------------------------------------------------------

Copyright(C) Seiichi Yoshida (comet@aerith.net). All rights reserved.